This is the latest recevied weather packets stored in our database for station/object SV6LWW-11. If no packets are shown the sender has not sent any weather packets the latest 10 day(s).
| Time | Temp. | Humidity | Pressure | Rain* | Wind** | Luminosity | Snow |
|---|---|---|---|---|---|---|---|
| 1777858176 | 21.11° C | 62% | 1026.3 hPa | - | - | - | - |
| 1777857276 | 21.11° C | 61% | 1026.2 hPa | - | - | - | - |
| 1777856376 | 21.11° C | 61% | 1026.3 hPa | - | - | - | - |
| 1777855476 | 21.11° C | 61% | 1026.2 hPa | - | - | - | - |
| 1777854575 | 21.67° C | 61% | 1026.3 hPa | - | - | - | - |
| 1777853675 | 21.67° C | 60% | 1026.4 hPa | - | - | - | - |
| 1777852775 | 21.67° C | 60% | 1026.4 hPa | - | - | - | - |
| 1777851875 | 21.67° C | 60% | 1026.6 hPa | - | - | - | - |
| 1777850975 | 21.67° C | 59% | 1026.6 hPa | - | - | - | - |
| 1777850075 | 21.67° C | 59% | 1026.6 hPa | - | - | - | - |
| 1777849175 | 22.22° C | 58% | 1026.5 hPa | - | - | - | - |
| 1777848274 | 22.22° C | 58% | 1026.5 hPa | - | - | - | - |
| 1777847374 | 22.22° C | 58% | 1026.5 hPa | - | - | - | - |
| 1777846476 | 22.78° C | 58% | 1026.4 hPa | - | - | - | - |
| 1777845576 | 22.78° C | 58% | 1026.6 hPa | - | - | - | - |
| 1777844676 | 23.33° C | 58% | 1026.4 hPa | - | - | - | - |
| 1777843776 | 22.78° C | 57% | 1026.3 hPa | - | - | - | - |
| 1777842876 | 22.78° C | 57% | 1026.2 hPa | - | - | - | - |
| 1777841976 | 22.78° C | 58% | 1026.1 hPa | - | - | - | - |
| 1777841076 | 22.78° C | 58% | 1026 hPa | - | - | - | - |
| 1777840175 | 22.78° C | 58% | 1026 hPa | - | - | - | - |
| 1777839275 | 22.78° C | 58% | 1026 hPa | - | - | - | - |
| 1777838375 | 25° C | 53% | 1025.9 hPa | - | - | - | - |
| 1777837475 | 24.44° C | 53% | 1025.8 hPa | - | - | - | - |
| 1777836575 | 23.33° C | 53% | 1025.6 hPa | - | - | - | - |
* Rain since midnight (hover to see other rain measurements)
** Current wind speed in m/s (hover to see current wind gust speed)